This is the latest recevied weather packets stored in our database for station/object N4ASP-13. If no packets are shown the sender has not sent any weather packets the latest 10 day(s).
| Time | Temp. | Humidity | Pressure | Rain* | Wind** | Luminosity | Snow |
|---|---|---|---|---|---|---|---|
| 1778272980 | 18.33° C | 45% | 1014.4 hPa | 0 mm | - | 712 W/m² | - |
| 1778272920 | 18.33° C | 44% | 1014.3 hPa | 0 mm | - | 712 W/m² | - |
| 1778272859 | 18.33° C | 45% | 1014.4 hPa | 0 mm | - | 712 W/m² | - |
| 1778272797 | 18.33° C | 44% | 1014.4 hPa | 0 mm | - | 714 W/m² | - |
| 1778272730 | 18.33° C | 43% | 1014.4 hPa | 0 mm | - | 714 W/m² | - |
| 1778272667 | 18.33° C | 44% | 1014.4 hPa | 0 mm | - | 714 W/m² | - |
| 1778272606 | 18.33° C | 45% | 1014.4 hPa | 0 mm | - | 520 W/m² | - |
| 1778272547 | 18.33° C | 44% | 1014.5 hPa | 0 mm | - | 631 W/m² | - |
| 1778272487 | 18.33° C | 43% | 1014.4 hPa | 0 mm | - | 631 W/m² | - |
| 1778272420 | 18.33° C | 45% | 1014.4 hPa | 0 mm | - | 631 W/m² | - |
| 1778272361 | 18.33° C | 44% | 1014.4 hPa | 0 mm | - | 631 W/m² | - |
| 1778272301 | 18.33° C | 45% | 1014.5 hPa | 0 mm | - | 631 W/m² | - |
| 1778272240 | 18.33° C | 43% | 1014.4 hPa | 0 mm | - | 631 W/m² | - |
| 1778272181 | 18.33° C | 44% | 1014.5 hPa | 0 mm | - | 719 W/m² | - |
| 1778272120 | 18.33° C | 43% | 1014.6 hPa | 0 mm | - | 905 W/m² | - |
| 1778272058 | 18.33° C | 42% | 1014.6 hPa | 0 mm | - | 905 W/m² | - |
| 1778271999 | 18.33° C | 42% | 1014.5 hPa | 0 mm | - | 861 W/m² | - |
| 1778271938 | 18.33° C | 43% | 1014.5 hPa | 0 mm | - | 673 W/m² | - |
| 1778271875 | 18.33° C | 43% | 1014.5 hPa | 0 mm | - | 673 W/m² | - |
| 1778271806 | 18.33° C | 44% | 1014.6 hPa | 0 mm | - | 673 W/m² | - |
| 1778271744 | 18.33° C | 41% | 1014.7 hPa | 0 mm | - | 589 W/m² | - |
| 1778271684 | 18.33° C | 41% | 1014.7 hPa | 0 mm | - | 589 W/m² | - |
| 1778271625 | 18.33° C | 39% | 1014.7 hPa | 0 mm | - | 589 W/m² | - |
| 1778271569 | 18.33° C | 42% | 1014.8 hPa | 0 mm | - | 589 W/m² | - |
| 1778271500 | 18.33° C | 40% | 1014.8 hPa | 0 mm | - | 589 W/m² | - |
* Rain latest hour (hover to see other rain measurements)
** Current wind speed in m/s (hover to see current wind gust speed)